Simultaneous Nadir Overpasses (SNOs) Predictions

Prediction of SNOs between METOP-B and TERRA Satellite Orbit:

Table of predicted SNOs for the next 14.0 days since TLE Epoch: 10/21/2023
Index Date (METOP-B) Time (METOP-B) Lat,Lon (METOP-B) SZA (METOP-B ) Date (TERRA) Time (TERRA) Lat,Lon (TERRA) SZA (TERRA ) Distance(km) Time Diff (sec)
1 10/23/2023 10:05:05 80.65, 57.66 93.45 10/23/2023 10:05:26 80.65, 57.67 93.45 0.27 21
2 10/23/2023 10:55:43 -80.71,-133.96 86.40 10/23/2023 10:54:47 -80.71,-134.04 86.43 1.46 56
3 10/26/2023 01:26:00 -80.64, 7.34 85.65 10/26/2023 01:26:34 -80.63, 7.18 85.66 3.17 34
4 10/26/2023 02:16:37 80.72, 175.82 94.53 10/26/2023 02:15:52 80.72, 175.74 94.50 1.36 45
5 10/28/2023 16:46:55 80.61, -43.31 95.19 10/28/2023 16:47:39 80.61, -43.33 95.20 0.34 44
6 10/28/2023 17:37:33 -80.68, 125.09 84.66 10/28/2023 17:37:00 -80.68, 125.01 84.68 1.61 33
7 10/31/2023 08:07:50 -80.57, -94.09 84.03 10/31/2023 08:08:45 -80.58, -93.96 84.00 2.46 55
8 10/31/2023 08:58:25 80.69, 75.01 96.24 10/31/2023 08:58:02 80.69, 74.87 96.22 2.62 23
9 11/02/2023 23:28:42 80.60,-143.94 96.87 11/02/2023 23:29:47 80.60,-144.06 96.88 2.26 65



Historial Predications of SNOs between METOP-B and TERRA
